2017-008BC

Last updated on Sat Apr 08 2017 00:17:57 GMT+0000 (Coordinated Universal Time)

1 41998U 17008BC 17096.89772967 .00002302 00000-0 10382-3 0 9999 2 41998 97.5039 158.4359 0010689 99.9625 260.2817 15.22002540 6930

Satellite not in orbit

2017-008BC